Terug naar catalogus

SL-8 R/B

ActiefPO
NORAD 11736·ROCKET BODY·🇷🇺 Russia

Gelanceerd Mar 17, 1980 vanaf Plesetsk Cosmodrome

Loading…

Volgende Passages (komende 24 uur)

TLE

VersSource: Space-Track

Epoch: Sep 14, 2026, 04:15 UTC

1 11736U 80022B   26257.17770995  .00000089  00000-0  74790-4 0  9995
2 11736  82.9463 170.8617 0033824  14.2859 345.9247 13.76829013334993

Volg SL-8 R/B in realtime met AllMySat

Download on the App Store